Date String (YYYY-MM-DD hh:mm:ss) UTC,Instrument flags,absolute air pressure of the measurement (hPa),sample flow rate (lpm),inlet stack bypass flow (lpm),air temperature of the measurement (°C),ambient temperature measured by the external sensor (°C),aerosol sample conditioner tube jacket temperature (°C),OPC LED temperature (°C),internal box temperature (°C),relative humidity of the measurement (%),span deviation,mass concentration of particles derived from Lorenz-Mie calculation of OPC scattering (μg/m³),mass concentration of particles derived from Lorenz-Mie calculation of OPC scattering (μg/m³),mass concentration of particles derived from Lorenz-Mie calculation of OPC scattering (μg/m³)
DateTimeUTC,F1_M11,P_M11,Q1_M11,Q2_M11,T1_M11,T2_M11,T3_M11,T4_M11,T5_M11,U1_M11,ZSPAN_M11,X0_M11,X2_M11,X1_M11
2024-03-08 11:00:00,SystemResetWarning,0828.8,5.00,000.00,018.6,017.8,000.0,027.3,020.3,21.0,0001.6,0007.49,0004.45,0004.33
2024-03-08 11:01:00,SystemResetWarning,0828.8,4.99,000.00,018.6,017.7,000.0,027.2,020.3,21.0,0001.8,0007.50,0004.44,0004.32
2024-03-08 11:02:00,SystemResetWarning,0828.8,5.00,000.00,018.6,017.7,000.0,027.2,020.3,21.0,0001.5,0007.48,0004.42,0004.29
2024-03-08 11:03:00,SystemResetWarning,0828.8,5.00,000.00,018.6,017.6,000.0,027.2,020.3,21.1,0001.2,0007.48,0004.41,0004.28
2024-03-08 11:04:00,SystemResetWarning,0828.9,5.01,000.00,018.5,017.6,000.0,027.2,020.2,21.1,0000.9,0007.52,0004.41,0004.27
2024-03-08 11:05:00,SystemResetWarning,0828.9,5.00,000.00,018.5,017.6,000.0,027.2,020.2,21.1,0001.1,0007.60,0004.38,0004.25
2024-03-08 11:06:00,SystemResetWarning,0829.0,5.00,000.00,018.5,017.6,000.0,027.2,020.2,21.1,0001.1,0007.63,0004.38,0004.24
2024-03-08 11:07:00,SystemResetWarning,0829.0,5.00,000.00,018.6,018.1,000.0,027.3,020.5,21.1,0000.7,0007.60,0004.36,0004.22
2024-03-08 11:08:00,SystemResetWarning,0828.9,5.00,000.00,018.8,019.0,000.0,027.4,021.1,20.8,0000.7,0007.53,0004.32,0004.19
2024-03-08 11:09:00,SystemResetWarning,0829.0,4.99,000.00,018.9,019.2,000.0,027.4,021.2,20.5,0001.3,0007.01,0004.30,0004.16
2024-03-08 11:10:00,SystemResetWarning,0829.0,4.99,000.00,019.0,019.0,000.0,027.3,021.0,20.4,0001.3,0006.66,0004.27,0004.14
2024-03-08 11:11:00,SystemResetWarning,0829.0,5.01,000.00,019.0,018.8,000.0,027.3,020.9,20.4,0001.5,0005.92,0004.24,0004.11
2024-03-08 11:12:00,SystemResetWarning,0829.0,5.00,000.00,018.9,018.6,000.0,027.3,020.8,20.5,0001.6,0005.86,0004.23,0004.10
2024-03-08 11:13:00,SystemResetWarning,0829.0,5.00,000.00,018.9,018.5,000.0,027.3,020.7,20.5,0001.2,0005.87,0004.25,0004.11
2024-03-08 11:14:00,SystemResetWarning,0829.0,5.00,000.00,018.9,018.3,000.0,027.3,020.7,20.5,0000.0,0005.79,0004.25,0004.11
2024-03-08 11:15:00,SystemResetWarning,0829.0,4.99,000.00,018.9,018.2,000.0,027.3,020.6,20.5,0000.0,0005.62,0004.24,0004.11
2024-03-08 11:16:00,SystemResetWarning,0829.0,4.99,000.00,018.8,018.1,000.0,027.3,020.5,20.5,0000.0,0005.34,0004.24,0004.10
2024-03-08 11:17:00,SystemResetWarning,0829.0,5.00,000.00,018.8,018.0,000.0,027.3,020.5,20.6,0000.0,0005.15,0004.21,0004.08
2024-03-08 11:18:00,SystemResetWarning,0829.0,5.00,000.00,018.8,018.0,000.0,027.3,020.5,20.6,0000.0,0005.13,0004.21,0004.07
2024-03-08 11:19:00,SystemResetWarning,0829.0,5.01,000.00,018.8,017.9,000.0,027.3,020.4,20.7,0000.0,0005.23,0004.23,0004.09
2024-03-08 11:20:00,SystemResetWarning,0829.0,5.00,000.00,018.7,017.9,000.0,027.3,020.4,20.7,0000.0,0005.15,0004.22,0004.08
2024-03-08 11:21:00,SystemResetWarning,0829.0,5.00,000.00,018.7,017.8,000.0,027.3,020.4,20.7,0000.0,0005.11,0004.21,0004.06
2024-03-08 11:22:00,SystemResetWarning,0829.0,4.99,000.00,018.7,017.8,000.0,027.3,020.3,20.7,0000.0,0005.05,0004.21,0004.06
2024-03-08 11:23:00,SystemResetWarning,0829.0,5.00,000.00,018.6,017.7,000.0,027.3,020.3,20.7,0000.0,0004.98,0004.19,0004.04
2024-03-08 11:24:00,SystemResetWarning,0829.0,5.01,000.00,018.6,017.7,000.0,027.3,020.3,20.8,0000.0,0004.88,0004.16,0004.02
2024-03-08 11:25:00,SystemResetWarning,0829.1,5.01,000.00,018.6,017.7,000.0,027.2,020.3,20.9,0000.0,0004.85,0004.13,0004.00
2024-03-08 11:26:00,SystemResetWarning,0829.1,5.00,000.00,018.6,017.6,000.0,027.2,020.3,20.9,0000.0,0004.83,0004.12,0003.98
2024-03-08 11:27:00,SystemResetWarning,0829.1,5.00,000.00,018.5,017.6,000.0,027.2,020.2,21.0,0000.0,0004.85,0004.11,0003.96
2024-03-08 11:28:00,SystemResetWarning,0829.1,4.99,000.00,018.5,017.6,000.0,027.2,020.2,21.1,0000.0,0004.78,0004.09,0003.94
2024-03-08 11:29:00,SystemResetWarning,0829.1,5.00,000.00,018.5,017.5,000.0,027.2,020.2,21.2,0000.0,0004.66,0004.06,0003.92
2024-03-08 11:30:00,SystemResetWarning,0829.1,5.00,000.00,018.5,017.5,000.0,027.2,020.2,21.2,0000.0,0004.51,0004.03,0003.91
2024-03-08 11:31:00,SystemResetWarning,0829.1,5.01,000.00,018.5,018.0,000.0,027.3,020.4,21.2,0000.0,0004.46,0004.02,0003.89
2024-03-08 11:32:00,SystemResetWarning,0829.2,5.00,000.00,018.7,018.9,000.0,027.4,021.0,21.0,0000.0,0004.41,0003.98,0003.86
2024-03-08 11:33:00,SystemResetWarning,0829.2,4.98,000.00,018.9,019.0,000.0,027.3,021.1,20.8,0000.0,0004.47,0003.98,0003.84
2024-03-08 11:34:00,SystemResetWarning,0829.2,5.01,000.00,018.9,018.8,000.0,027.3,020.9,20.8,0000.0,0004.43,0003.96,0003.83
2024-03-08 11:35:00,SystemResetWarning,0829.2,5.01,000.00,018.9,018.5,000.0,027.3,020.7,20.9,0000.0,0004.39,0003.95,0003.83
2024-03-08 11:36:00,SystemResetWarning,0829.2,5.00,000.00,018.8,018.2,000.0,027.3,020.5,20.9,0000.0,0004.34,0003.94,0003.82
2024-03-08 11:37:00,SystemResetWarning,0829.2,5.00,000.00,018.8,018.0,000.0,027.3,020.4,21.0,0000.0,0004.29,0003.93,0003.81
2024-03-08 11:38:00,SystemResetWarning,0829.2,4.99,000.00,018.7,017.9,000.0,027.3,020.4,21.0,0000.0,0004.22,0003.91,0003.81
2024-03-08 11:39:00,SystemResetWarning,0829.2,5.00,000.00,018.7,017.8,000.0,027.2,020.3,21.0,0000.0,0004.19,0003.90,0003.81
2024-03-08 11:40:00,SystemResetWarning,0829.3,5.00,000.00,018.6,017.7,000.0,027.2,020.3,21.0,0000.0,0004.20,0003.90,0003.81
2024-03-08 11:41:00,SystemResetWarning,0829.3,5.00,000.00,018.6,017.6,000.0,027.2,020.2,21.0,0000.0,0004.19,0003.89,0003.80
2024-03-08 11:42:00,SystemResetWarning,0829.3,5.00,000.00,018.5,017.6,000.0,027.2,020.2,21.0,0000.0,0004.13,0003.88,0003.79
2024-03-08 11:43:00,SystemResetWarning,0829.3,5.00,000.00,018.5,017.5,000.0,027.2,020.1,21.1,0000.0,0004.06,0003.85,0003.77
2024-03-08 11:44:00,SystemResetWarning,0829.4,5.00,000.00,018.5,017.5,000.0,027.2,020.1,21.1,0000.0,0003.90,0003.79,0003.72
2024-03-08 11:45:00,SystemResetWarning,0829.4,5.02,000.00,018.5,018.1,000.0,027.3,020.5,21.0,0000.0,0003.80,0003.73,0003.67
2024-03-08 11:46:00,SystemResetWarning,0829.3,4.99,000.00,018.8,018.9,000.0,027.4,021.0,20.8,0000.0,0003.72,0003.68,0003.63
2024-03-08 11:47:00,SystemResetWarning,0829.3,4.99,000.00,018.9,019.0,000.0,027.3,021.0,20.6,0000.0,0003.63,0003.62,0003.57
2024-03-08 11:48:00,SystemResetWarning,0829.3,5.01,000.00,018.9,018.7,000.0,027.3,020.9,20.5,0000.0,0003.63,0003.57,0003.52
2024-03-08 11:49:00,SystemResetWarning,0829.4,5.00,000.00,018.8,018.5,000.0,027.3,020.7,20.5,0000.0,0003.53,0003.51,0003.46
2024-03-08 11:50:00,SystemResetWarning,0829.3,4.99,000.00,018.8,018.2,000.0,027.3,020.6,20.6,0000.0,0003.44,0003.44,0003.39
2024-03-08 11:51:00,SystemResetWarning,0829.3,4.99,000.00,018.8,018.0,000.0,027.3,020.4,20.6,0000.0,0003.37,0003.38,0003.34
2024-03-08 11:52:00,SystemResetWarning,0829.3,5.00,000.00,018.7,017.9,000.0,027.3,020.4,20.6,0000.0,0003.27,0003.31,0003.27
2024-03-08 11:53:00,SystemResetWarning,0829.4,5.00,000.00,018.7,017.7,000.0,027.2,020.3,20.7,0000.0,0003.24,0003.27,0003.23
2024-03-08 11:54:00,SystemResetWarning,0829.3,5.00,000.00,018.6,017.6,000.0,027.2,020.2,20.7,0000.0,0003.17,0003.22,0003.18
2024-03-08 11:55:00,SystemResetWarning,0829.4,5.00,000.00,018.6,017.5,000.0,027.2,020.2,20.7,0000.0,0003.17,0003.22,0003.19
2024-03-08 11:56:00,SystemResetWarning,0829.3,5.01,000.00,018.5,017.4,000.0,027.2,020.1,20.8,0000.0,0003.21,0003.24,0003.21
2024-03-08 11:57:00,SystemResetWarning,0829.3,5.00,000.00,018.5,017.4,000.0,027.2,020.0,20.9,0000.0,0003.25,0003.25,0003.22
2024-03-08 11:58:00,SystemResetWarning,0829.3,5.00,000.00,018.4,017.3,000.0,027.2,020.0,20.9,0000.0,0003.29,0003.26,0003.23
2024-03-08 11:59:00,SystemResetWarning,0829.4,5.01,000.00,018.5,017.7,000.0,027.2,020.3,20.9,0000.0,0003.32,0003.30,0003.27
